{"data":{"norad_id":66441,"epoch":"2026-09-20T16:18:32.243904Z","epoch_age_seconds":77860,"freshness":"FRESH","line1":"1 66441U 25259V   26263.67953986  .00011315  00000+0  41989-3 0  9990","line2":"2 66441  43.0011 253.0409 0001567 274.6034  85.4639 15.27593693 49312","mean_motion":15.27593693,"eccentricity":0.0001567,"inclination_deg":43.0011,"raan_deg":253.0409,"arg_perigee_deg":274.6034,"mean_anomaly_deg":85.4639,"bstar":0.00041989,"rev_number":4931,"period_min":94.265903728106,"perigee_km":481.93295314158,"apogee_km":484.08323601422,"semimajor_km":6861.1450945779,"source":"CELESTRAK","updated_at":"2026-09-21T09:00:35.910059Z"}}